Find Kosmos-516

NORAD ID: 6154 Int'l Des: 1972-066 Owner: TSKBM Country: SU operational
LEOCIRCULAR

リアルタイム位置

3D地球を読み込み中...

Kosmos-516について

説明を読み込み中...

次回通過

Passes for default location (London). Set your location on the main map for personalized predictions.

高度履歴

Loading altitude history...

軌道要素

1 6154U 72066A 26119.86245794 -.00000047 00000-0 41164-4 0 9993
2 6154 64.8110 314.9890 0054290 115.2210 245.4487 13.77810293701265
Epoch: Apr 29, 2026 • Age: 4 hours

現在のステータス

高度 969.8 km
速度 7.37 km/s
衛星直下点 27.85°N, 105.95°E
タイプ other

Most Searched